User: anonymous   Login
Location: Granada
(37.1830°N, 3.6000°W)
Time: 05:17:05
(UTC+02:00)
Language:

Iridium 70 - Orbit

View from above orbital plane
View from above orbital plane
View from above satellite
View from above satellite

Ground track
Ground track

The orbit data is extracted from the following two-line orbital elements,

1 25342U 98032A   17173.60914534 +.00000116 +00000-0 +34285-4 0  9993
2 25342 086.3977 221.9784 0002367 088.7180 064.5376 14.34221640999871
Epoch (UTC): 22 June 2017 14:37:10
Eccentricity: 0.0002367
inclination: 86.3977°
perigee height: 776 km
apogee height: 779 km
right ascension of ascending node: 221.9784°
argument of perigee: 88.7180°
revolutions per day: 14.34221640
mean anomaly at epoch: 64.5376°
orbit number at epoch: 99987

The dashed part of the orbit path shows where the satellite is in the earth's shadow,  

DLR